Hourly Data Report for July 03, 2021

KUGLUKTUK A
NUNAVUT
Current Station Operator: NAVCAN

67°49'00.000" N
115°08'38.000" W
22.60 m
2300903
71938
YCO

Download Data

Hourly Data (July 2021)
Hourly Data Report for July 3, 2021
TIME
LST
Temp Definition
°C
Dew Point Definition
°C
Rel Hum Definition
%
Precip. Amount Definition
mm

Wind Dir Definition
10's deg

Wind Spd Definition
km/h
Visibility Definition
km
Stn Press Definition
kPa
Hmdx Definition


Wind Chill Definition


Weather Definition


00:00 4.0 1.5 84   1 25 24.1 102.02     LegendNANA
01:00 3.6 0.9 83   36 26 24.1 102.04     LegendNANA
02:00 3.6 0.6 81   36 24 24.1 102.04     Cloudy
03:00 3.7 1.0 82   35 18 24.1 102.08     LegendNANA
04:00 3.6 1.3 84   36 14 24.1 102.08     LegendNANA
05:00 3.8 1.1 83   3 14 24.1 102.11     Cloudy
06:00 4.5 1.1 78   4 5 24.1 102.14     LegendNANA
07:00 5.2 1.0 74   5 4 24.1 102.13     LegendNANA
08:00 6.8 1.1 67   1 7 24.1 102.12     Mainly Clear
09:00 6.4 1.1 69   6 10 24.1 102.10     LegendNANA
10:00 6.8 0.9 66   5 13 24.1 102.11     LegendNANA
11:00 7.6 1.2 64   5 15 24.1 102.11     Mainly Clear
12:00 8.7 1.3 60   5 14 24.1 102.13     LegendNANA
13:00 9.1 2.0 61   6 12 24.1 102.12     LegendNANA
14:00 9.6 0.3 52   6 12 24.1 102.12     Clear
15:00 10.2 0.1 49   5 14 24.1 102.11     LegendNANA
16:00 9.9 0.3 51   5 16 24.1 102.08     LegendNANA
17:00 9.4 0.1 52   7 20 24.1 102.06     Clear
18:00 9.1 0.5 55   8 22 24.1 102.05     LegendNANA
19:00 8.9 0.6 56   9 23 24.1 102.02     LegendNANA
20:00 8.4 0.8 58   9 21 24.1 102.04     Clear
21:00 7.3 0.6 62   9 18 24.1 102.04     LegendNANA
22:00 5.9 0.6 68   9 16 24.1 102.03     LegendNANA
23:00 4.0 0.4 77   8 12 24.1 102.06     Clear

Notes on Data Quality.

Legend

  • E = Estimated
  • M = Missing
  • NA = Not Available*
  • [empty] = Indicates an unobserved value
Date modified: